Theta_e
311 312 313 315 315 313 312 312 312 312 312 311 311 311 311 311 310 312 313 314 318 324 327 335 339 345 346 350 348 345 350 354 351 352 352 348 349 345 343 345 345 346 345 345 347
313 312 312 312 315 315 314 312 312 312 312 313 312 311 311 311 312 316 315 314 317 325 329 334 343 345 342 350 350 349 352 352 350 349 349 349 350 346 344 347 348 348 346 345 345
313 314 314 313 313 314 315 315 313 312 311 312 312 311 311 310 319 317 316 315 323 329 330 332 334 339 345 348 350 352 354 353 351 349 346 348 350 348 344 348 345 349 348 346 346
310 312 313 314 314 313 314 315 314 312 311 312 311 311 310 314 326 323 316 315 326 326 330 330 335 344 348 350 347 353 353 351 351 349 348 350 348 349 345 346 342 346 345 345 346
308 309 311 313 315 315 313 314 315 312 311 311 311 310 312 315 315 315 321 318 321 322 322 326 337 343 347 349 348 354 354 351 349 349 349 348 350 351 346 344 343 345 345 345 344
308 309 309 311 313 315 315 314 315 314 312 310 309 310 318 315 315 322 323 313 318 321 320 331 337 341 345 351 351 351 351 351 349 350 349 349 348 348 347 344 345 345 346 345 344
309 310 310 310 312 314 317 315 315 314 313 311 313 320 320 315 318 323 318 319 322 320 321 330 339 339 346 350 346 350 352 350 349 348 351 347 349 348 346 345 345 345 345 344 343
312 312 311 311 312 314 317 316 315 315 314 312 315 320 320 318 321 322 317 321 321 320 329 335 337 340 344 345 345 350 351 355 349 346 349 347 352 347 346 346 346 345 345 344 343
312 312 311 315 312 313 318 315 316 316 313 312 320 323 324 322 324 321 318 318 318 319 329 338 339 343 344 346 345 350 352 353 352 347 348 347 351 346 346 345 347 347 346 345 344
313 312 312 313 315 313 317 314 313 313 314 318 322 323 322 323 324 319 318 318 320 323 338 334 339 339 344 344 338 339 345 349 353 352 349 350 350 346 346 347 346 346 346 346 345
312 312 313 313 315 315 315 318 322 321 321 321 322 322 323 325 325 322 318 320 321 323 328 327 329 332 332 340 338 339 345 345 349 350 351 354 352 349 346 347 347 346 346 346 345
312 312 313 313 314 315 317 318 316 321 322 320 321 322 321 323 326 323 320 325 325 326 323 326 330 327 326 330 337 339 339 343 350 351 352 353 354 350 347 347 346 346 345 346 344
312 313 312 313 315 315 315 316 316 315 318 317 320 323 324 323 325 326 325 323 326 325 323 328 329 323 326 328 332 332 336 341 345 354 352 352 354 352 349 347 345 345 344 345 346
313 312 312 314 315 315 316 320 318 318 322 324 324 324 324 324 325 324 324 326 321 325 322 324 323 323 324 325 330 332 338 340 351 353 357 350 356 351 347 351 349 346 345 344 345
315 313 314 315 315 317 318 320 320 318 333 325 325 323 324 326 325 321 319 323 324 322 322 326 324 326 325 325 333 335 342 346 351 354 352 353 355 350 347 349 351 348 345 344 344
318 319 317 316 316 316 319 318 317 325 333 328 326 326 327 325 321 319 322 321 320 321 321 323 321 322 324 330 335 345 348 349 347 351 354 345 351 344 348 349 347 348 347 344 344
320 321 318 319 320 318 319 317 325 329 324 324 325 326 327 326 324 323 322 323 322 323 323 323 323 323 321 324 342 346 343 342 345 353 346 346 352 345 344 344 344 346 347 346 344
322 321 319 319 320 319 314 323 326 322 325 321 320 320 328 325 326 321 323 324 320 321 322 325 325 323 323 325 328 341 336 331 332 335 338 349 352 343 343 343 342 343 342 345 345
323 321 321 321 320 317 320 325 323 322 320 322 322 324 325 325 325 323 323 325 324 321 323 324 324 320 319 322 328 334 337 332 334 339 342 342 344 340 344 345 344 343 342 346 345
322 322 322 319 317 314 323 320 320 317 319 321 325 323 326 325 326 324 324 323 323 321 323 324 325 323 322 320 322 329 331 330 333 337 335 341 346 340 342 349 347 346 345 346 346
322 327 323 320 316 322 325 322 319 319 319 323 323 326 327 328 325 325 326 324 321 320 320 322 323 326 323 325 326 326 327 328 329 333 331 334 336 340 345 346 347 346 346 347 347
321 329 322 318 323 316 322 322 319 325 326 327 322 324 324 321 324 325 325 326 324 320 322 321 323 326 326 324 323 326 327 328 329 333 336 335 336 333 341 341 346 345 346 346 347
323 324 321 317 326 327 324 325 324 326 325 326 327 326 326 323 325 322 324 323 327 323 323 321 324 328 329 324 321 324 324 326 328 330 339 333 332 334 339 341 341 346 346 345 345
320 329 324 320 317 324 325 326 326 324 324 324 325 326 328 329 327 328 330 328 326 329 327 322 323 329 332 333 327 331 330 325 328 331 333 334 332 335 338 343 343 344 346 345 346
319 321 319 326 325 322 322 325 327 328 325 324 326 327 327 331 330 330 328 329 328 328 329 322 328 326 325 325 323 325 327 330 330 331 333 330 336 336 339 342 344 343 345 346 347
320 321 319 321 320 323 321 325 326 326 326 326 328 327 327 328 328 330 328 329 330 329 330 328 336 331 331 330 328 327 327 330 331 332 334 334 338 336 337 340 344 346 346 348 348
311 312 318 317 322 323 324 323 324 322 324 324 324 326 328 326 323 324 324 325 326 327 329 330 333 336 336 333 333 333 332 332 333 333 334 337 336 337 341 344 345 347 348 349 351
Wind_Speed
15 13 12 9 8 6 5 4 5 5 5 5 6 5 5 6 7 5 7 6 9 13 17 12 4 5 2 2 2 1 0 0 1 1 4 4 4 2 2 9 4 3 4 7 19
16 15 13 12 8 7 6 5 6 5 5 6 6 5 4 7 5 9 6 11 12 17 15 16 9 8 2 1 2 3 2 3 1 2 1 4 4 3 4 5 4 7 10 19 18
15 15 14 12 11 9 7 6 5 4 4 5 6 3 4 4 3 3 13 17 20 17 13 11 11 5 2 1 1 1 2 4 1 5 3 3 4 2 5 3 5 10 15 16 17
16 14 15 13 12 10 8 7 5 3 2 3 4 2 2 0 3 3 11 20 23 17 12 8 8 3 2 1 1 2 0 3 2 2 2 1 4 3 7 2 7 14 16 16 13
16 15 15 14 13 10 8 7 5 2 1 3 3 2 2 3 5 1 10 21 21 17 9 8 8 4 1 3 3 2 1 3 4 2 4 1 2 2 6 5 12 15 14 13 11
16 17 16 14 12 11 9 7 4 2 3 4 4 3 1 5 2 3 15 23 17 15 5 5 3 4 5 3 2 1 4 1 3 4 5 4 1 2 3 11 12 13 13 10 10
18 19 16 14 12 11 9 7 5 3 5 5 4 2 1 5 2 2 21 17 17 10 4 5 6 1 4 4 3 4 2 1 4 5 2 6 2 2 3 10 13 12 10 10 9
20 19 17 13 11 9 8 7 4 4 6 5 4 1 5 2 3 11 17 12 11 8 4 6 7 7 2 6 2 2 1 3 2 1 4 5 4 9 4 11 12 12 10 9 10
23 19 15 13 10 7 6 3 1 3 7 6 1 0 3 1 3 12 12 7 7 5 2 9 3 3 4 2 0 0 4 3 2 5 1 1 3 16 7 10 12 12 11 10 9
28 19 13 12 10 3 3 7 12 10 7 3 0 3 3 2 5 12 10 14 4 10 6 2 2 2 2 2 4 5 5 3 5 5 6 6 12 8 9 13 13 12 12 11 12
32 21 14 11 7 5 14 6 3 2 2 5 1 2 2 2 8 5 11 8 6 3 5 2 5 9 6 9 6 6 4 7 3 6 10 12 13 12 12 15 14 14 13 14 15
35 23 16 11 6 9 10 3 3 2 2 9 4 6 5 2 3 5 14 7 4 6 5 3 12 5 5 5 7 7 9 8 2 4 10 6 15 16 14 18 19 17 16 16 14
37 25 17 8 5 8 12 9 4 2 1 2 4 4 4 8 3 7 12 6 6 7 8 9 3 2 6 7 6 8 9 4 5 5 8 5 10 12 13 18 17 17 16 15 17
38 26 13 2 7 8 5 10 6 3 2 2 3 3 5 5 5 4 12 7 4 10 6 7 5 9 6 6 4 4 2 5 6 3 3 1 5 3 6 13 17 20 18 17 16
37 22 5 15 7 5 4 3 7 4 1 2 4 3 3 6 6 4 3 5 8 5 5 6 3 7 5 3 6 4 2 7 5 3 3 4 4 4 2 9 18 21 20 18 18
31 12 8 14 5 3 7 9 3 2 2 3 4 6 6 3 2 4 4 4 2 4 3 8 2 5 4 3 4 9 9 8 4 1 3 1 4 5 4 4 5 16 20 20 20
19 6 10 10 3 5 7 4 2 2 1 3 2 5 7 7 6 5 10 9 7 7 13 9 14 9 6 6 7 4 4 1 2 3 3 1 4 10 5 8 8 11 19 21 19
9 8 8 4 6 4 4 2 2 1 1 1 2 1 7 8 5 5 7 10 8 5 1 3 7 9 10 14 11 10 5 4 5 4 4 3 5 3 3 6 10 10 10 15 18
4 6 5 5 6 2 1 1 1 2 2 5 1 2 6 5 3 6 7 9 11 16 10 5 6 2 7 6 10 6 8 2 2 1 3 2 6 9 4 1 2 3 6 11 15
2 3 5 5 4 2 1 1 1 3 4 1 2 2 3 6 9 7 8 4 7 17 19 5 9 4 2 5 4 6 9 4 3 4 7 4 5 8 3 5 3 4 7 10 12
2 2 7 6 1 2 2 2 3 2 3 2 1 2 1 2 4 6 5 2 3 2 13 9 7 15 2 7 10 5 5 2 2 4 7 6 5 5 7 6 9 8 7 9 12
2 2 11 2 2 1 2 1 4 3 5 2 1 1 2 1 3 5 7 4 5 5 8 9 5 10 17 6 3 3 7 6 6 5 1 3 5 3 6 5 8 10 10 9 10
3 2 8 3 2 2 2 1 2 5 5 5 3 2 2 1 3 2 1 2 8 4 5 7 6 5 6 4 4 7 8 10 6 2 8 7 5 2 5 6 9 11 12 11 11
1 1 4 5 2 2 2 3 2 5 1 4 4 0 2 1 2 2 3 3 8 3 3 7 6 8 12 13 1 5 7 12 15 7 8 10 11 7 8 9 8 11 11 11 11
5 3 2 3 4 3 1 1 2 3 4 5 1 6 3 3 2 2 3 6 2 3 3 3 6 9 15 16 9 12 13 12 16 15 10 13 12 12 9 10 12 10 9 10 12
3 2 2 2 2 1 3 2 2 3 3 2 3 10 6 3 2 3 7 2 4 4 4 1 4 2 7 13 13 14 13 13 18 9 9 7 11 9 2 3 8 10 12 13 12
5 2 2 3 2 1 2 2 0 5 3 3 6 7 7 1 9 12 11 13 14 8 7 4 3 3 12 9 9 11 14 15 11 10 14 10 14 9 7 10 13 12 13 15 15
Wind_Direction
10 12 11 2 357 345 331 319 297 281 261 251 253 262 283 288 293 268 239 216 188 183 167 146 141 149 80 70 42 144 15 61 20 191 121 64 144 102 36 127 111 17 154 139 152
10 9 10 7 357 347 338 325 310 297 264 248 248 256 278 293 292 242 238 188 178 161 164 160 157 151 100 82 30 22 339 25 2 219 143 88 73 152 160 149 97 88 108 134 151
6 4 3 2 1 350 340 328 315 305 273 242 244 254 275 318 267 243 184 173 168 166 163 154 153 161 169 147 78 92 312 343 15 295 256 337 45 331 164 203 178 165 149 151 163
1 357 354 353 354 351 342 335 330 307 256 226 234 227 253 237 174 95 168 176 169 160 160 149 152 189 198 129 110 275 28 332 343 281 278 214 310 136 202 5 162 151 156 156 173
0 354 348 345 344 343 344 336 330 293 195 194 205 195 166 214 253 247 189 166 171 185 171 170 169 190 311 120 138 302 353 13 357 126 51 19 11 332 187 99 129 140 158 166 180
355 348 339 334 331 333 330 326 318 265 196 172 165 155 196 220 288 323 171 172 180 173 150 174 200 173 108 120 35 22 78 10 348 360 46 20 284 232 130 140 137 154 167 173 188
347 341 334 323 319 321 313 317 296 238 203 167 147 119 226 225 301 148 163 169 179 170 147 188 145 249 136 122 121 132 328 110 47 334 9 334 173 22 156 168 155 170 176 181 196
350 343 335 318 306 307 301 306 271 221 192 167 149 111 249 250 29 154 163 153 170 175 85 141 125 101 48 123 93 317 296 344 94 300 3 333 313 312 183 176 174 181 188 196 203
354 349 336 329 304 293 288 296 236 190 160 149 98 286 257 251 190 171 163 156 139 158 131 130 84 82 129 143 349 230 324 286 289 188 97 346 270 265 205 199 188 194 195 206 209
356 352 337 323 316 277 146 109 102 107 125 127 286 268 227 188 149 153 163 142 135 133 135 125 89 163 135 207 332 324 307 255 260 190 188 217 248 252 208 212 209 202 206 211 219
356 352 340 321 297 160 137 125 169 165 217 214 192 282 6 67 140 135 164 141 116 143 183 164 228 241 253 229 263 287 266 276 234 190 196 220 253 260 221 209 220 209 214 217 224
353 349 338 318 269 183 173 216 228 57 282 224 250 275 259 312 132 122 155 161 168 171 139 182 247 240 247 239 243 263 283 271 277 177 209 225 251 250 228 211 214 215 216 221 223
351 344 333 306 239 189 197 215 158 140 277 246 189 210 219 180 218 180 179 141 172 184 194 230 242 80 244 273 270 281 262 263 291 162 223 291 272 233 235 219 214 218 226 225 220
350 339 324 196 153 168 217 217 229 181 292 171 211 224 157 169 198 182 178 165 166 211 181 253 270 255 255 261 240 303 289 253 176 208 311 259 305 264 213 221 217 218 219 223 214
348 334 293 164 147 183 158 195 184 167 188 122 135 137 147 193 130 164 204 146 204 183 194 224 242 227 240 283 193 340 23 137 164 187 283 189 255 270 202 219 225 221 223 218 209
349 343 156 167 186 167 155 149 143 221 146 123 129 164 167 194 132 113 162 127 149 192 235 257 268 260 266 86 215 145 106 92 89 163 262 40 258 271 218 207 226 219 217 214 210
355 26 147 152 122 135 158 163 170 222 339 103 142 177 196 184 187 170 175 185 192 203 235 243 243 250 214 230 149 206 185 232 228 207 274 349 226 266 261 246 244 222 217 214 207
20 72 116 78 126 129 155 184 191 79 320 350 1 171 203 169 193 158 169 201 213 206 332 252 256 229 204 222 235 198 234 254 275 263 326 145 241 265 258 282 281 249 229 216 207
61 80 74 357 191 118 167 174 274 198 293 332 42 192 198 204 219 187 209 224 214 202 215 201 250 257 223 201 189 165 210 292 194 77 255 294 274 266 262 352 274 161 180 196 202
98 104 42 41 57 147 136 201 227 233 308 234 274 263 203 183 187 195 193 190 227 204 212 220 268 230 64 175 123 218 142 180 218 221 254 227 276 287 331 158 172 200 189 185 190
82 100 5 336 352 65 194 208 281 261 255 269 287 286 293 237 225 202 204 225 216 117 200 206 234 254 246 220 223 165 211 201 257 275 259 261 256 220 252 209 182 197 201 188 191
3 99 352 43 64 26 121 343 341 344 15 338 274 257 263 289 256 233 221 238 349 165 167 209 229 252 253 226 203 222 219 212 249 227 239 300 263 206 244 237 214 187 191 193 206
48 349 355 4 132 92 8 45 353 10 18 358 346 12 25 283 267 253 287 103 18 198 180 170 217 248 266 185 164 218 200 214 223 230 212 227 255 171 253 217 220 211 189 188 192
27 103 22 50 29 59 23 9 340 10 94 354 344 249 346 327 34 304 306 314 341 13 33 181 207 231 257 275 113 238 217 205 209 214 222 230 237 221 226 232 214 232 207 187 181
20 63 22 29 47 62 351 351 339 350 2 352 121 36 329 283 290 294 339 323 295 27 31 220 250 228 247 259 251 261 261 213 208 224 213 250 214 231 230 216 216 215 220 188 179
51 5 24 60 331 355 5 57 3 346 309 350 18 339 334 268 38 329 347 313 292 321 340 9 271 261 265 262 259 250 256 239 232 244 239 236 229 228 197 239 207 206 200 197 193
25 36 301 10 21 309 50 29 328 344 244 263 10 327 305 266 315 287 267 266 268 292 299 282 270 276 261 280 296 257 243 231 224 218 213 194 223 170 198 210 218 204 197 194 188